Precipitable_Water
0.64 0.62 0.61 0.60 0.62 0.62 0.61 0.59 0.58 0.58 0.54 0.48 0.44 0.41 0.41 0.42 0.40 0.34 0.38 0.56 0.77 1.08 1.21 1.11 1.02 0.98 0.94 0.81 0.79 0.81 0.65 0.51 0.58 0.60 0.71 0.94 0.91 1.02 1.17 1.06 1.19 1.25 1.15 1.21 1.34
0.65 0.62 0.61 0.61 0.61 0.61 0.60 0.59 0.57 0.57 0.54 0.48 0.43 0.41 0.42 0.44 0.31 0.25 0.47 0.71 0.97 1.14 1.06 0.90 0.84 0.91 0.77 0.72 0.69 0.71 0.54 0.54 0.73 0.79 0.76 0.87 0.92 0.98 1.00 1.05 1.09 1.17 1.23 1.34 1.31
0.64 0.61 0.61 0.60 0.60 0.60 0.59 0.58 0.57 0.55 0.53 0.49 0.44 0.41 0.46 0.48 0.29 0.33 0.65 0.89 1.08 1.14 0.95 0.92 0.90 0.83 0.69 0.64 0.61 0.63 0.53 0.62 0.78 0.85 0.87 0.88 0.92 1.02 0.97 0.89 1.02 1.06 1.09 1.24 1.28
0.62 0.61 0.60 0.60 0.59 0.59 0.58 0.58 0.57 0.55 0.52 0.49 0.45 0.45 0.51 0.46 0.24 0.53 0.83 0.94 1.05 1.07 0.90 0.88 0.81 0.70 0.63 0.55 0.59 0.53 0.59 0.69 0.85 0.94 0.92 0.87 0.94 0.85 0.92 0.92 1.09 1.19 1.24 1.31 1.31
0.61 0.59 0.59 0.59 0.59 0.58 0.58 0.57 0.56 0.54 0.51 0.49 0.47 0.50 0.50 0.35 0.45 0.72 0.86 0.93 0.97 0.93 0.83 0.85 0.73 0.66 0.58 0.55 0.56 0.53 0.62 0.75 0.89 0.96 0.94 0.99 0.87 0.81 0.91 1.07 1.22 1.26 1.29 1.33 1.34
0.62 0.59 0.58 0.57 0.57 0.57 0.56 0.55 0.54 0.52 0.52 0.50 0.49 0.55 0.43 0.32 0.64 0.74 0.85 0.95 0.90 0.89 0.88 0.83 0.72 0.71 0.63 0.59 0.61 0.64 0.71 0.78 0.90 0.97 0.99 0.90 0.91 0.91 0.98 1.12 1.17 1.19 1.24 1.35 1.45
0.68 0.62 0.59 0.57 0.55 0.55 0.54 0.52 0.51 0.52 0.53 0.50 0.52 0.53 0.35 0.39 0.68 0.76 0.88 0.88 0.90 0.86 0.85 0.81 0.78 0.72 0.69 0.61 0.75 0.74 0.69 0.78 0.88 0.96 0.95 0.98 0.89 0.87 1.02 1.13 1.14 1.18 1.26 1.35 1.44
0.72 0.68 0.62 0.56 0.54 0.53 0.52 0.51 0.50 0.51 0.51 0.48 0.55 0.51 0.32 0.47 0.67 0.73 0.81 0.83 0.88 0.89 0.80 0.79 0.79 0.75 0.71 0.70 0.63 0.64 0.69 0.61 0.77 0.88 0.96 0.86 0.73 0.96 1.09 1.11 1.14 1.24 1.33 1.39 1.47
0.72 0.69 0.64 0.56 0.54 0.52 0.50 0.50 0.51 0.53 0.58 0.57 0.49 0.43 0.27 0.42 0.52 0.73 0.83 0.79 0.83 0.85 0.80 0.78 0.80 0.67 0.61 0.56 0.50 0.50 0.54 0.52 0.63 0.84 0.86 0.80 0.72 0.95 1.16 1.13 1.17 1.25 1.34 1.44 1.56
0.75 0.71 0.66 0.57 0.53 0.51 0.49 0.50 0.53 0.57 0.61 0.61 0.50 0.33 0.29 0.32 0.45 0.67 0.83 0.82 0.82 0.80 0.74 0.74 0.71 0.58 0.56 0.49 0.46 0.47 0.49 0.48 0.49 0.68 0.71 0.70 0.71 0.88 1.05 1.13 1.18 1.27 1.36 1.42 1.46
0.77 0.73 0.70 0.59 0.53 0.50 0.47 0.40 0.32 0.35 0.43 0.35 0.28 0.24 0.30 0.39 0.46 0.52 0.72 0.82 0.81 0.76 0.61 0.68 0.57 0.55 0.54 0.51 0.54 0.52 0.50 0.45 0.55 0.67 0.59 0.59 0.66 0.79 0.99 1.05 1.12 1.23 1.31 1.35 1.39
0.77 0.74 0.70 0.60 0.55 0.53 0.50 0.35 0.34 0.42 0.24 0.33 0.34 0.32 0.36 0.42 0.31 0.43 0.61 0.66 0.70 0.61 0.67 0.61 0.52 0.64 0.57 0.53 0.52 0.51 0.46 0.45 0.55 0.62 0.56 0.60 0.59 0.75 0.90 0.99 1.12 1.21 1.26 1.34 1.37
0.76 0.74 0.70 0.58 0.53 0.50 0.41 0.43 0.52 0.50 0.25 0.26 0.27 0.25 0.26 0.34 0.28 0.33 0.49 0.57 0.62 0.62 0.60 0.51 0.58 0.64 0.56 0.50 0.50 0.49 0.38 0.41 0.48 0.55 0.56 0.53 0.54 0.61 0.78 0.94 1.05 1.16 1.25 1.33 1.29
0.76 0.74 0.67 0.58 0.46 0.43 0.43 0.55 0.55 0.54 0.20 0.19 0.18 0.22 0.25 0.31 0.26 0.34 0.39 0.47 0.49 0.56 0.59 0.59 0.63 0.56 0.55 0.50 0.53 0.42 0.39 0.37 0.48 0.47 0.44 0.46 0.37 0.59 0.66 0.78 0.89 1.03 1.17 1.23 1.24
0.75 0.72 0.64 0.61 0.44 0.38 0.51 0.56 0.61 0.46 0.11 0.27 0.23 0.37 0.30 0.25 0.27 0.25 0.33 0.32 0.37 0.44 0.54 0.48 0.56 0.50 0.49 0.52 0.52 0.41 0.42 0.42 0.49 0.48 0.36 0.46 0.34 0.51 0.58 0.66 0.86 1.04 1.19 1.20 1.31
0.74 0.67 0.61 0.53 0.50 0.48 0.58 0.59 0.53 0.22 0.12 0.24 0.25 0.21 0.22 0.28 0.25 0.29 0.25 0.29 0.31 0.33 0.39 0.44 0.50 0.48 0.49 0.50 0.49 0.50 0.46 0.45 0.46 0.40 0.31 0.38 0.29 0.33 0.53 0.68 0.81 0.96 1.11 1.23 1.31
0.70 0.63 0.58 0.55 0.39 0.52 0.58 0.49 0.25 0.17 0.34 0.25 0.19 0.23 0.21 0.22 0.22 0.24 0.22 0.21 0.18 0.16 0.17 0.23 0.32 0.38 0.42 0.42 0.49 0.41 0.45 0.38 0.33 0.32 0.27 0.36 0.28 0.34 0.59 0.80 0.86 0.95 1.11 1.21 1.38
0.65 0.64 0.62 0.55 0.54 0.54 0.52 0.35 0.21 0.20 0.30 0.33 0.23 0.22 0.21 0.23 0.22 0.22 0.23 0.20 0.22 0.20 0.17 0.16 0.14 0.29 0.42 0.42 0.44 0.36 0.39 0.30 0.25 0.24 0.26 0.37 0.28 0.51 0.66 0.88 1.01 1.09 1.23 1.36 1.42
0.68 0.63 0.62 0.61 0.59 0.54 0.40 0.25 0.21 0.28 0.36 0.27 0.26 0.20 0.21 0.23 0.22 0.22 0.20 0.20 0.23 0.21 0.16 0.15 0.21 0.38 0.40 0.45 0.42 0.36 0.29 0.31 0.26 0.25 0.20 0.30 0.45 0.64 0.79 0.84 0.98 1.09 1.15 1.31 1.43
0.59 0.61 0.55 0.64 0.59 0.46 0.33 0.27 0.27 0.37 0.37 0.32 0.27 0.27 0.22 0.20 0.19 0.21 0.21 0.22 0.22 0.22 0.23 0.23 0.32 0.37 0.46 0.46 0.44 0.34 0.37 0.25 0.27 0.24 0.27 0.35 0.42 0.45 0.59 0.70 0.87 1.01 1.11 1.26 1.42
0.59 0.53 0.56 0.60 0.53 0.36 0.26 0.29 0.29 0.38 0.37 0.33 0.33 0.32 0.30 0.20 0.19 0.20 0.22 0.22 0.21 0.21 0.23 0.27 0.36 0.33 0.44 0.40 0.37 0.32 0.28 0.29 0.37 0.33 0.31 0.34 0.39 0.55 0.55 0.71 0.84 0.97 1.14 1.25 1.34
0.64 0.50 0.60 0.59 0.32 0.35 0.27 0.31 0.31 0.34 0.39 0.36 0.35 0.33 0.32 0.25 0.20 0.22 0.22 0.26 0.23 0.23 0.21 0.29 0.35 0.30 0.34 0.47 0.43 0.41 0.37 0.35 0.30 0.38 0.43 0.38 0.36 0.62 0.60 0.68 0.89 1.01 1.20 1.32 1.26
0.67 0.60 0.61 0.54 0.28 0.26 0.33 0.30 0.30 0.35 0.36 0.36 0.41 0.44 0.40 0.32 0.22 0.22 0.25 0.29 0.25 0.22 0.24 0.31 0.30 0.29 0.32 0.40 0.44 0.42 0.41 0.42 0.44 0.42 0.37 0.32 0.43 0.69 0.66 0.71 0.92 1.00 1.18 1.21 1.13
0.76 0.57 0.53 0.48 0.50 0.43 0.41 0.37 0.36 0.47 0.41 0.43 0.51 0.50 0.46 0.42 0.31 0.26 0.26 0.36 0.33 0.27 0.28 0.31 0.31 0.31 0.32 0.34 0.41 0.40 0.42 0.46 0.40 0.37 0.43 0.41 0.48 0.55 0.68 0.69 0.90 1.02 1.14 1.14 1.14
0.73 0.65 0.69 0.51 0.50 0.51 0.51 0.52 0.41 0.41 0.51 0.50 0.53 0.52 0.54 0.45 0.40 0.37 0.31 0.42 0.43 0.45 0.30 0.26 0.25 0.29 0.32 0.39 0.34 0.33 0.35 0.37 0.37 0.38 0.38 0.46 0.48 0.55 0.65 0.74 0.87 1.05 1.10 1.08 1.10
0.58 0.61 0.70 0.62 0.68 0.61 0.58 0.52 0.45 0.50 0.56 0.53 0.54 0.57 0.53 0.58 0.51 0.45 0.45 0.45 0.43 0.48 0.43 0.29 0.28 0.34 0.29 0.35 0.33 0.33 0.34 0.37 0.43 0.50 0.50 0.51 0.51 0.67 0.72 0.82 0.89 0.98 1.05 1.05 1.08
0.68 0.66 0.68 0.65 0.66 0.62 0.63 0.57 0.52 0.57 0.66 0.67 0.62 0.59 0.57 0.63 0.68 0.67 0.66 0.66 0.60 0.51 0.47 0.41 0.38 0.38 0.29 0.39 0.35 0.30 0.36 0.43 0.49 0.56 0.55 0.50 0.64 0.69 0.70 0.80 0.89 0.97 1.02 1.06 1.07
Wind_Speed
7 7 7 7 7 7 8 8 9 9 9 9 5 2 2 3 4 7 10 9 11 12 10 7 5 4 3 3 3 4 4 8 9 9 8 7 8 11 8 8 7 7 7 10 12
7 7 7 7 8 8 8 8 9 9 9 8 4 1 1 2 5 8 9 11 12 12 9 6 5 5 4 4 4 3 6 8 7 8 8 8 10 9 9 8 7 7 9 11 13
7 7 8 8 8 9 9 9 9 9 9 7 3 1 1 3 6 8 11 13 13 12 8 5 4 6 5 5 4 4 5 5 7 9 9 10 10 10 7 7 5 7 10 11 12
6 7 8 9 9 9 9 9 9 9 8 6 2 1 2 5 6 8 11 14 13 11 8 6 7 6 5 5 5 4 5 5 6 7 9 11 10 12 13 11 9 10 11 11 10
8 8 9 9 10 10 10 10 9 9 7 5 3 2 4 6 5 9 14 15 14 11 8 6 6 6 5 6 6 3 4 5 6 7 8 9 10 11 12 11 10 10 9 9 8
9 9 10 11 11 11 11 10 10 9 7 5 4 3 5 7 6 10 15 15 13 11 8 6 6 5 6 5 2 3 6 7 6 6 6 8 8 7 9 9 9 7 7 7 6
10 11 11 12 12 11 11 11 10 9 7 6 5 4 6 5 8 12 15 14 12 11 8 6 5 5 6 5 4 6 7 6 4 4 3 4 6 8 6 6 6 6 6 5 4
12 12 12 13 13 12 12 11 10 9 7 7 7 7 5 8 9 13 15 15 13 11 8 6 5 5 4 5 6 4 4 3 2 2 1 3 5 4 3 4 4 4 3 2 3
13 13 14 14 13 13 13 12 10 9 8 8 8 8 8 9 11 14 16 14 14 12 10 8 6 4 6 8 6 6 2 2 1 3 1 3 4 1 1 1 2 1 1 2 4
14 14 15 15 14 14 13 12 10 10 10 10 10 10 10 10 12 15 17 15 14 14 12 10 7 7 7 8 5 4 3 3 5 2 5 3 3 0 2 2 1 3 3 4 4
16 16 16 16 15 14 12 10 11 11 13 12 9 10 9 10 13 16 18 17 15 15 16 12 11 9 3 3 2 3 4 6 3 2 4 5 4 3 3 4 4 5 5 5 4
17 17 17 17 15 13 11 11 10 11 12 15 16 16 13 12 14 17 18 18 18 17 17 14 15 8 6 5 5 5 7 3 1 2 4 2 4 3 4 5 5 5 6 6 6
18 18 17 17 14 11 12 11 10 10 12 13 15 16 15 16 15 19 22 19 20 20 18 20 14 10 9 8 7 6 4 3 4 2 3 4 7 4 4 5 5 5 5 5 6
19 18 17 16 12 11 11 12 11 10 11 11 14 15 16 15 16 17 22 20 18 21 20 20 16 15 13 11 8 8 3 5 4 4 2 3 6 5 3 4 5 4 5 5 4
19 19 18 15 14 12 11 11 10 10 11 10 12 12 16 16 13 17 19 20 22 22 18 20 19 18 18 14 9 4 4 4 5 5 6 4 7 2 3 5 4 5 5 5 6
19 19 17 14 14 14 13 11 11 12 12 10 11 16 18 17 13 14 18 17 15 19 21 22 15 17 18 13 11 7 5 5 4 5 8 1 7 8 3 4 4 5 3 4 4
19 18 15 13 12 13 13 12 12 14 10 11 14 17 20 17 13 17 18 20 18 17 17 20 19 18 18 15 11 11 10 7 5 5 6 3 7 8 3 2 3 3 3 5 5
18 15 12 12 13 13 14 14 14 10 11 10 12 18 19 18 16 15 18 19 21 18 14 16 19 23 20 19 12 14 13 11 7 8 5 3 7 4 3 3 4 3 3 1 6
15 9 10 11 13 14 15 16 11 12 10 10 14 17 18 18 14 16 19 19 20 19 14 16 14 22 16 15 14 10 12 9 11 8 9 6 6 6 2 2 3 2 1 2 7
10 9 8 10 13 15 16 17 13 13 10 12 15 17 18 19 17 16 16 18 19 21 17 13 15 18 16 14 11 11 5 8 8 6 6 3 6 7 3 4 3 4 4 4 8
8 9 8 9 12 15 16 15 16 15 12 11 12 14 15 19 19 17 15 11 20 21 21 15 15 15 16 15 10 10 12 12 7 6 8 8 3 6 5 6 6 6 7 6 7
7 8 8 10 12 14 16 15 14 17 15 14 13 14 13 17 18 16 14 10 17 19 21 21 15 15 17 10 9 10 9 12 10 8 7 9 11 6 7 7 7 7 9 8 7
7 7 8 10 12 14 14 16 17 18 17 14 13 14 14 14 16 18 15 10 14 18 21 19 16 15 14 12 9 11 11 11 9 8 9 9 5 8 8 7 7 9 9 10 11
8 8 8 11 11 11 12 15 17 17 18 17 15 14 13 14 16 17 15 13 14 15 12 19 20 18 16 13 9 10 10 11 12 10 6 11 10 10 8 8 9 10 10 10 12
7 7 8 9 12 12 12 12 15 16 17 16 15 17 15 13 15 14 17 14 13 13 15 15 19 20 19 11 12 12 11 13 14 13 12 11 13 13 10 9 11 11 11 11 12
7 7 8 10 10 12 12 11 13 14 16 16 17 12 15 13 14 15 16 15 13 14 16 17 14 16 19 16 16 16 15 15 16 14 14 15 16 9 9 10 12 13 13 13 12
6 7 8 10 10 10 10 9 11 12 16 16 14 14 15 13 11 10 12 12 11 13 14 15 14 13 17 15 16 17 18 17 16 14 14 15 9 9 10 11 14 16 15 15 14
Wind_Direction
291 292 292 293 301 310 318 325 331 336 340 339 333 313 234 213 211 193 187 180 171 166 164 159 157 151 140 126 101 84 82 66 57 49 60 63 50 41 44 77 56 52 79 127 143
293 292 291 292 296 303 309 317 324 330 335 337 334 303 221 208 193 188 177 173 171 167 166 168 169 160 149 133 117 84 75 57 44 58 63 62 48 48 51 60 62 80 96 123 142
296 294 292 291 294 298 302 308 316 323 329 333 327 291 221 191 176 164 171 168 166 167 168 169 165 161 155 143 127 104 72 53 70 74 70 69 57 47 46 42 68 112 120 127 138
305 300 296 292 292 294 297 301 307 313 319 322 301 260 200 173 171 172 173 170 168 168 168 164 161 159 154 144 127 114 67 68 89 84 78 63 60 51 48 50 76 114 128 128 137
309 303 300 297 293 292 293 294 298 303 306 298 269 238 192 185 161 174 170 170 169 169 169 162 150 156 147 140 136 101 87 83 103 94 78 69 54 56 55 63 84 108 128 133 136
309 304 301 297 294 292 290 289 291 292 291 270 244 229 204 190 181 172 169 170 173 175 167 163 155 156 139 144 117 110 104 102 106 96 88 68 61 35 55 70 85 109 126 137 141
308 305 302 298 293 290 287 285 284 281 274 247 231 222 211 189 182 176 174 175 176 179 170 164 172 187 174 152 141 135 117 109 104 108 72 68 35 56 70 72 91 115 129 144 154
306 305 303 297 293 288 284 281 276 268 255 237 228 222 216 195 190 186 184 185 185 184 183 176 177 171 190 172 168 168 181 181 145 174 86 334 46 68 70 76 97 119 121 160 212
306 305 302 297 292 287 280 275 264 254 242 233 227 225 209 209 205 196 192 193 192 193 193 191 188 181 179 191 184 205 208 249 228 239 280 273 30 92 113 79 97 148 240 286 287
303 303 301 298 292 285 278 265 250 244 236 234 231 225 222 211 206 200 198 198 196 195 195 201 201 193 192 207 203 170 222 248 283 249 244 265 298 250 227 253 261 291 280 290 307
301 300 299 298 291 280 268 251 244 239 233 236 224 231 217 215 208 204 199 199 201 206 207 205 215 203 189 205 172 221 261 285 280 279 266 266 291 248 245 265 266 279 281 268 277
299 299 298 296 288 271 254 249 245 247 248 235 236 233 230 220 209 204 201 202 203 206 209 206 220 194 204 212 235 249 269 240 282 270 265 265 270 264 260 277 277 273 291 268 265
297 296 296 295 281 254 250 243 242 252 246 234 230 229 222 215 213 205 205 209 208 211 211 218 216 198 219 226 251 243 285 242 297 215 265 278 260 254 274 288 287 282 285 271 265
295 293 293 292 262 257 241 235 248 246 243 218 223 221 211 213 217 208 210 211 214 216 217 223 216 219 230 242 244 262 275 256 218 223 302 281 318 247 242 282 290 278 272 262 251
292 291 287 276 261 245 237 240 239 229 238 217 212 213 200 206 197 211 208 213 219 218 216 221 224 222 230 237 232 253 268 231 220 249 285 226 291 333 278 277 301 297 279 261 254
294 290 283 261 247 241 233 237 225 229 231 214 208 203 198 207 208 197 204 213 218 218 223 230 225 222 226 223 215 214 218 202 227 267 267 295 300 309 315 289 327 306 276 251 243
296 289 270 252 243 233 226 220 227 234 221 210 206 198 201 201 201 198 201 204 205 208 213 217 222 215 212 208 210 216 211 223 242 243 284 321 290 298 327 311 325 343 272 265 241
299 281 255 244 235 226 217 221 230 231 221 213 210 200 205 201 206 208 206 209 211 214 208 210 208 205 204 214 214 217 231 259 260 275 314 281 291 330 327 310 309 321 340 245 170
299 262 248 240 229 218 216 220 226 217 219 219 202 202 206 204 215 211 212 211 205 208 212 203 204 186 197 205 216 209 236 256 269 263 276 281 294 262 301 282 309 261 220 151 168
287 256 253 239 219 216 220 225 223 219 225 217 211 206 205 205 207 206 202 214 210 205 211 202 184 192 194 198 212 238 240 228 228 262 268 239 296 318 261 248 266 228 188 166 166
269 251 246 223 218 216 220 221 222 218 221 217 213 208 216 199 204 204 205 211 206 202 205 205 208 188 195 209 217 217 234 232 257 269 293 280 332 328 312 261 241 223 198 184 177
263 248 235 222 219 223 225 225 219 222 218 224 223 225 216 201 205 205 205 215 197 194 196 201 207 189 199 201 229 239 243 215 236 238 260 292 297 302 309 281 238 214 203 200 191
263 253 234 227 229 222 222 227 223 223 220 216 219 216 207 207 206 206 206 188 187 194 198 195 205 199 201 206 218 225 218 236 254 275 271 290 323 308 304 275 232 210 208 208 206
256 245 236 230 229 230 224 223 223 214 222 220 222 214 206 206 208 202 205 197 197 201 199 211 215 219 212 215 208 212 223 229 247 265 268 281 299 307 298 262 226 215 211 211 211
255 252 246 228 221 228 225 224 222 215 210 213 213 215 205 201 196 203 197 191 200 202 207 212 218 218 229 228 233 247 242 240 244 261 269 301 300 305 300 255 228 220 215 214 216
260 257 242 231 225 223 211 213 221 213 209 203 211 206 213 213 202 197 195 200 203 200 205 211 216 215 223 230 239 243 248 246 242 253 263 278 290 298 291 258 231 222 219 222 224
263 251 234 213 214 216 210 214 213 216 205 211 216 218 209 204 210 199 196 193 193 194 201 205 214 217 229 229 239 244 244 242 239 249 262 274 293 292 286 261 238 225 226 230 230